Track COSMOS 2432 (GLONASS) now! COSMOS 2432 (GLONASS) is classified as:
1 32276U 07052B 21016.81449986 -.00000060 00000-0 00000-0 0 9990 2 32276 66.0487 21.9154 0011644 316.8324 265.0672 2.13103425102954